Skip Page Navigation
NASA JPL Caltech
NASA Logo - Jet Propulsion Laboratory + View the NASA Portal
+ Center for Near-Earth Object Studies
JPL Home Earth Solar System Stars & Galaxies Technology
JPL Solar System Dynamics
BODIES ORBITS EPHEMERIDES TOOLS PHYSICAL DATA DISCOVERY FAQ SITE MAP

Significant website upgrade scheduled for September 27. More details available here.

JPL Small-Body Database Browser
Search: [ help ]  
(2020 YA1)
Classification: Aten [NEO]          SPK-ID: 54100904
Ephemeris | Orbit Diagram | Orbital Elements | Mission Design | Physical Parameters | Close-Approach Data ]

[ hide orbit diagram ]

For accurate long-term ephemerides, please instead use our Horizons system.This orbit viewer was implemented using two-body methods, and hence should not be used for determining accurate long-term trajectories (over several years or decades) or planetary encounter circumstances.


Orbital Elements at Epoch 2459396.5 (2021-Jul-01.0) TDB
Reference: JPL 10 (heliocentric ecliptic J2000)
 Element Value Uncertainty (1-sigma)   Units 
e .1111160358641663 0.00013077  
a .9329611474831725 3.2171e-05 au
q .8292942031595586 0.0001506 au
i 2.385197324023238 0.0030869 deg
node 282.0094874534772 0.0016174 deg
peri 303.9452592627829 0.0082935 deg
M 84.13596166165324 0.032092 deg
tp 2459319.574039695182
(2021-Apr-15.07403970)
0.025364 TDB
period 329.1499278406236
0.90
0.017025
4.661e-05
d
yr
n 1.093726504398063 5.6571e-05 deg/d
Q 1.036628091806787 3.5745e-05 au
  Orbit Determination Parameters
   # obs. used (total)      65  
   data-arc span      16 days  
   first obs. used      2020-12-17  
   last obs. used      2021-01-02  
   planetary ephem.      DE441  
   SB-pert. ephem.      SB441-N16  
   condition code      6  
   norm. resid. RMS      .35707  
   source      ORB  
   producer      Otto Matic  
   solution date      2021-Apr-15 23:21:03  

Additional Information
 Earth MOID = .000236277 au 
 Jupiter MOID = 3.93134 au 
 T_jup = 6.418 
[ show covariance matrix ]

Ephemeris | Orbit Diagram | Orbital Elements | Mission Design | Physical Parameters | Close-Approach Data ]

Physical Parameter Table
Parameter Symbol Value Units Sigma Reference Notes
absolute magnitude H 26.75   .43901 E2021A07 autocmod 2.8

[ hide close-approach data ]
Close-Approach Data   ...sorted by Date/Time (TDB)
Date/Time (TDB) Time Uncertainty
(days_HH:MM)
Body Nominal Distance (au) Minimum Distance (au) Maximum Distance (au) V-relative (km/s) V-infinity (km/s) JD (TDB) Time Uncertainty (minutes) Semi-major axis (km) Semi-minor axis (km) range-LOV angle (deg) N-sigma BP Orbit Ref. Reference Modified
1900-Dec-31 18:34 1_12:19 Earth 0.161341758367497 0.124413743624417 0.198298462881974 8.14398337282029 8.14195530361069 2415385.273601345 2179.35311012251 1845288.30311858 45.7128850767549 3.53265405203139 24342.4418574045 T 10 CATAB v2.0g-lin.ifort 2021-Apr-15 23:21:04 2021-Apr-15 23:21
1910-Sep-15 13:31 09:38 Earth 0.232867654304687 0.230256397270167 0.235480447032025 10.0899622148648 10.0888281495823 2418930.063356346 577.566109572512 133621.485361666 24.4272907115194 -12.928930800229 237276.167164098 T 10 CATAB v2.0g-lin.ifort 2021-Apr-15 23:21:04 2021-Apr-15 23:21
1911-May-30 23:21 21:06 Earth 0.161004107966175 0.159509774477592 0.162499623879156 4.41159968156124 4.4078468068493 2419187.472792280 1266.24528080202 77658.7521829551 128.633090663399 16.6598257530229 26635.4469727548 T 10 CATAB v2.0g-lin.ifort 2021-Apr-15 23:21:04 2021-Apr-15 23:21
1912-Jan-03 17:11 04:30 Earth 0.0728395097323283 0.0669730313672793 0.078706789365052 5.45620268230469 5.44949423651706 2419405.215858053 269.888520293006 292805.545877446 63.8228230700641 -3.54286929143481 7418.68885314431 T 10 CATAB v2.0g-lin.ifort 2021-Apr-15 23:21:04 2021-Apr-15 23:21
1921-Sep-15 14:28 19:23 Earth 0.223733682352137 0.191937611769635 0.255678629138849 9.80971760362348 9.80850351229627 2422948.102701483 1163.31292352874 1615108.50737697 59.4802894439707 -10.2144030236274 65528.3932416803 T 10 CATAB v2.0g-lin.ifort 2021-Apr-15 23:21:04 2021-Apr-15 23:21
1922-May-26 21:40 8_14:38 Earth 0.164198795404492 0.159783799723958 0.168882973493699 4.50554183510801 4.50193879539593 2423201.402806118 12397.8472939553 401882.355201029 51.4050070756157 55.6733945065689 180869.385167482 T 10 CATAB v2.0g-lin.ifort 2021-Apr-15 23:21:04 2021-Apr-15 23:21
1923-Jan-03 00:10 09:57 Earth 0.0928221904953416 0.0586523213707497 0.126974127718845 6.06486780060069 6.06013292289608 2423422.506970189 596.949921660266 1702249.46363544 24.4146503008701 0.874137994791229 5943.63991276106 T 10 CATAB v2.0g-lin.ifort 2021-Apr-15 23:21:04 2021-Apr-15 23:21
1932-Sep-13 04:17 09:24 Earth 0.155769429842752 0.142436032621827 0.169184067730381 7.73268956645896 7.73047717647723 2426963.678602464 564.373575102631 690106.561069034 57.6578330896795 -14.9168989001782 63458.3076456099 T 10 CATAB v2.0g-lin.ifort 2021-Apr-15 23:21:04 2021-Apr-15 23:21
1933-May-08 15:39 2_17:04 Earth 0.169278335133963 0.169137350601969 0.169448532300914 4.67816140197611 4.67479557306205 2427201.152219252 3903.50094611303 111214.595051015 111.223521170143 86.0015753350149 104958.236604089 T 10 CATAB v2.0g-lin.ifort 2021-Apr-15 23:21:04 2021-Apr-15 23:21
1934-Jan-01 00:29 02:24 Earth 0.164059898764155 0.154630385583516 0.173490651375787 8.24984982872412 8.24788096480329 2427438.519794809 144.012642055713 470780.036214112 28.6810889376845 -3.07654560131368 35062.2668441607 T 10 CATAB v2.0g-lin.ifort 2021-Apr-15 23:21:04 2021-Apr-15 23:21
1934-Mar-19 09:37 1_22:26 Venus 0.147608607475125 0.146986363323992 0.152110851608573 1.88252651581021 1.87469545846093 2427515.900859207 2786.31004809624 1279681.0385499 19.4282449519528 -84.5697055075778 50595.6009097905 T 10 CATAB v2.0g-lin.ifort 2021-Apr-15 23:21:04 2021-Apr-15 23:21
1936-Feb-08 22:30 11:18 Venus 0.12820474213015 0.128000861335115 0.128421773089008 3.01126478000196 3.00563460229615 2428207.437492108 677.786290562938 65659.1762324347 140.922268329212 80.598331312296 89476.5072399092 T 10 CATAB v2.0g-lin.ifort 2021-Apr-15 23:21:04 2021-Apr-15 23:21
1937-Dec-27 21:52 11:26 Venus 0.135782645752368 0.134875206538697 0.136816664184306 3.5876079627678 3.58314739883721 2428895.411362350 685.708916987222 212472.225540581 22.2227370182993 -76.8436519512304 598467.620385138 T 10 CATAB v2.0g-lin.ifort 2021-Apr-15 23:21:04 2021-Apr-15 23:21
1943-Sep-12 18:54 15:07 Earth 0.103899572763951 0.0865310610558683 0.121719257073021 6.07897649417034 6.0747564314846 2430980.287329928 907.231837748854 941542.78476172 46.5966521315075 -21.0746739223831 68364.3480260848 T 10 CATAB v2.0g-lin.ifort 2021-Apr-15 23:21:04 2021-Apr-15 23:21
1944-Apr-24 16:43 5_17:35 Earth 0.166913498745196 0.165197864023376 0.168757907637825 4.53282737611903 4.5293043121982 2431205.196213950 8254.50913306683 247746.719730181 133.3794313335 -69.0615269785272 81566.6162393222 T 10 CATAB v2.0g-lin.ifort 2021-Apr-15 23:21:04 2021-Apr-15 23:21
1944-Dec-30 08:11 1_03:24 Earth 0.219393128678964 0.197108511888757 0.24169435742949 9.9296419258493 9.92841876802638 2431454.840970937 1644.21452032554 1115727.19420593 90.7332977278044 4.97803676774841 23498.1184014348 T 10 CATAB v2.0g-lin.ifort 2021-Apr-15 23:21:04 2021-Apr-15 23:21
1954-Sep-11 19:13 19:19 Earth 0.077477757532365 0.0539414593426268 0.103876731179174 5.19130706824615 5.1846782522868 2434997.301017101 1159.27359158872 1451639.2118074 47.8664530342764 -29.2656223681673 64302.3796198504 T 10 CATAB v2.0g-lin.ifort 2021-Apr-15 23:21:04 2021-Apr-15 23:21
1955-Apr-18 14:09 7_22:54 Earth 0.163207311127938 0.159067668796147 0.167597733427443 4.39089687233785 4.38717721014099 2435216.089300857 11454.488316698 383579.032245061 135.125551093614 -56.3853824892737 70547.0329413587 T 10 CATAB v2.0g-lin.ifort 2021-Apr-15 23:21:04 2021-Apr-15 23:21
1955-Dec-30 17:08 1_01:42 Earth 0.242079044907035 0.214736087677441 0.269430940024 10.6176035493311 10.616566857069 2435472.213820564 1541.93053989733 1365676.99674131 66.5293394243601 3.19958967226767 22828.2430600613 T 10 CATAB v2.0g-lin.ifort 2021-Apr-15 23:21:04 2021-Apr-15 23:21
1965-Sep-12 23:42 02:35 Earth 0.12872567511877 0.12013260613558 0.137382364758026 6.85435310038979 6.8513326173228 2439016.487398413 154.925616993682 453157.077250895 41.4201403256165 -18.4044155818667 87508.8601074217 T 10 CATAB v2.0g-lin.ifort 2021-Apr-15 23:21:04 2021-Apr-15 23:21
1966-May-03 22:40 2_12:39 Earth 0.166929346434141 0.166425203004224 0.167459828191165 4.60134913219814 4.59787890207768 2439249.444430928 3638.93839410833 107735.583130019 68.4744279840846 76.1530488492231 154118.267764141 T 10 CATAB v2.0g-lin.ifort 2021-Apr-15 23:21:04 2021-Apr-15 23:21
1967-Jan-01 22:14 08:22 Earth 0.180791042798251 0.16920750390681 0.192375535678409 8.74911680383262 8.74743214079732 2439492.426329450 501.90269282782 578019.202215396 50.1285361109249 2.41995383916931 16445.3012342282 T 10 CATAB v2.0g-lin.ifort 2021-Apr-15 23:21:04 2021-Apr-15 23:21
1976-Sep-15 18:23 1_06:01 Earth 0.216504428868215 0.178597196605493 0.254646927522069 9.58198119304201 9.58069673664127 2443037.266295749 1801.46920468817 1929269.11800914 57.4315897376585 -10.5221581605853 67456.4218475013 T 10 CATAB v2.0g-lin.ifort 2021-Apr-15 23:21:04 2021-Apr-15 23:21
1978-Jan-04 14:40 15:04 Earth 0.0857050987292571 0.0453197210431105 0.126106647722383 5.87187488203868 5.86657794471752 2443513.111211401 903.926063172228 2015112.90691173 27.2281895659065 2.73257187767603 17086.7979273991 T 10 CATAB v2.0g-lin.ifort 2021-Apr-15 23:21:04 2021-Apr-15 23:21
1982-Oct-25 15:32 4_22:21 Venus 0.147840851648033 0.146798232156358 0.16477398915896 1.9803338633557 1.97290278787804 2445268.147173277 7100.80080227842 2862126.97905132 22.5595384139802 -83.0354499677961 53514.4287195447 T 10 CATAB v2.0g-lin.ifort 2021-Apr-15 23:21:04 2021-Apr-15 23:21
